TimePDT,TemperatureF,Dew PointF,Humidity,Sea Level PressureIn,VisibilityMPH,Wind Direction,Wind SpeedMPH,Gust SpeedMPH,PrecipitationIn,Events,Conditions,WindDirDegrees,DateUTC
12:53 AM,54.0,46.0,75,30.02,10.0,Calm,Calm,-,N/A,,Clear,0,2013-06-06 07:53:00
1:53 AM,52.0,44.1,74,30.02,10.0,Calm,Calm,-,N/A,,Clear,0,2013-06-06 08:53:00
2:53 AM,50.0,43.0,77,30.02,10.0,Calm,Calm,-,N/A,,Clear,0,2013-06-06 09:53:00
3:53 AM,48.9,43.0,80,30.01,10.0,Calm,Calm,-,N/A,,Clear,0,2013-06-06 10:53:00
4:53 AM,48.0,42.1,80,30.02,10.0,Calm,Calm,-,N/A,,Clear,0,2013-06-06 11:53:00
5:53 AM,46.0,39.9,79,30.05,10.0,Calm,Calm,-,N/A,,Clear,0,2013-06-06 12:53:00
6:53 AM,48.9,43.0,80,30.05,10.0,Calm,Calm,-,N/A,,Clear,0,2013-06-06 13:53:00
7:53 AM,57.9,45.0,62,30.04,10.0,Calm,Calm,-,N/A,,Clear,0,2013-06-06 14:53:00
8:53 AM,69.1,44.1,40,30.03,10.0,Calm,Calm,-,N/A,,Clear,0,2013-06-06 15:53:00
9:53 AM,73.9,45.0,35,30.02,10.0,NE,4.6,-,N/A,,Clear,40,2013-06-06 16:53:00
10:53 AM,73.9,46.0,37,30.02,10.0,NNE,6.9,-,N/A,,Clear,30,2013-06-06 17:53:00
11:53 AM,79.0,42.1,27,30.01,10.0,Variable,4.6,-,N/A,,Clear,0,2013-06-06 18:53:00
12:53 PM,82.0,41.0,23,30.00,10.0,Variable,3.5,-,N/A,,Clear,0,2013-06-06 19:53:00
1:53 PM,82.9,37.0,19,29.99,10.0,North,8.1,-,N/A,,Clear,10,2013-06-06 20:53:00
2:53 PM,82.9,28.0,14,29.99,10.0,Variable,3.5,-,N/A,,Clear,0,2013-06-06 21:53:00
3:34 PM,78.8,33.8,20,30.19,10.0,South,12.7,-,N/A,,Mostly Cloudy,180,2013-06-06 22:34:00
3:53 PM,75.0,30.0,19,30.03,10.0,SSW,15.0,26.5,N/A,,Partly Cloudy,200,2013-06-06 22:53:00
4:53 PM,79.0,35.1,20,30.01,10.0,South,12.7,21.9,N/A,,Clear,190,2013-06-06 23:53:00
5:53 PM,78.1,34.0,20,30.02,10.0,South,8.1,-,N/A,,Clear,190,2013-06-07 00:53:00
6:53 PM,73.9,37.9,27,30.02,10.0,North,3.5,-,N/A,,Clear,10,2013-06-07 01:53:00
7:53 PM,66.9,42.1,40,30.02,10.0,Calm,Calm,-,N/A,,Clear,0,2013-06-07 02:53:00
8:53 PM,63.0,44.1,50,30.01,10.0,South,4.6,-,N/A,,Clear,170,2013-06-07 03:53:00
9:53 PM,59.0,41.0,51,30.02,10.0,Calm,Calm,-,N/A,,Clear,0,2013-06-07 04:53:00
10:53 PM,57.0,42.1,57,30.04,10.0,SW,3.5,-,N/A,,Clear,220,2013-06-07 05:53:00
11:53 PM,55.0,41.0,59,30.03,10.0,Calm,Calm,-,N/A,,Clear,0,2013-06-07 06:53:00